Regional Weather Roundup
Issued by NWS

Home | Current Version | Previous Version | Text Only | Print | Product List | Glossary Off
Versions: 1 2 3 4 5 6 7 8 9 10 11 12 13 14 15 16 17 18 19 20 21 22 23 24 25 26 27 28 29 30 31 32 33 34 35 36 37 38 39 40 41 42 43 44 45 46 47 48 49 50

000
ASUS43 KOAX 030010
RWRNE

WEATHER ROUNDUP FOR NEBRASKA
NATIONAL WEATHER SERVICE OMAHA NE
700 PM CDT SUN AUG 02 2015

NOTES: SATELLITE DATA IS BEING USED TO AUGMENT CLOUD COVER ABOVE
       12000 FEET.
       "FAIR" INDICATES FEW OR NO CLOUDS BELOW 12,000 FEET WITH NO
       SIGNIFICANT WEATHER AND/OR OBSTRUCTIONS TO VISIBILITY.

  * THESE STATIONS DO NOT REPORT WEATHER SUCH AS RAIN...SNOW OR FOG.

NEZ001>004-019>022-054>056-030100-
NEBRASKA PANHANDLE

CITY           SKY/WX    TMP DP  RH WIND       PRES   REMARKS
SCOTTSBLUFF    SUNNY     89  51  27 S12       29.96F
6HR MIN TEMP:  83; 6HR MAX TEMP:  94;

ALLIANCE       MOSUNNY   90  51  26 NE3       29.97S
6HR MIN TEMP:  86; 6HR MAX TEMP:  95;

CHADRON        SUNNY     89  55  31 NE16      29.93S
6HR MIN TEMP:  87; 6HR MAX TEMP:  93;

KIMBALL        MOSUNNY   85  46  25 E9        30.03F
SIDNEY         PTSUNNY   89  47  23 CALM      30.01F
6HR MIN TEMP:  84; 6HR MAX TEMP:  96; 6HR PCP: TRACE;

$$

NEZ057>060-069>072-079>082-030100-
SOUTHWEST NEBRASKA

CITY           SKY/WX    TMP DP  RH WIND       PRES   REMARKS
NORTH PLATTE   CLOUDY    79  62  56 CALM      29.90R
6HR MIN TEMP:  76; 6HR MAX TEMP:  96; 6HR PCP: TRACE;

IMPERIAL       CLOUDY    85  55  35 E10G21    29.94R
6HR MIN TEMP:  84; 6HR MAX TEMP:  98;

LEXINGTON      CLOUDY    80  55  42 SE7       29.93F
MCCOOK         LGT RAIN  81  54  39 N12       29.93R
6HR MIN TEMP:  80; 6HR MAX TEMP: 100; 6HR PCP: TRACE;

OGALLALA       CLOUDY    82  55  39 CALM      29.95S
$$

NEZ005>010-023>029-035>040-094-030100-
NORTH CENTRAL NEBRASKA

CITY           SKY/WX    TMP DP  RH WIND       PRES   REMARKS
AINSWORTH      SUNNY     83  64  50 E7        29.92S
BROKEN BOW     PTSUNNY   83  51  33 S13G24    29.92F
6HR MIN TEMP:  76; 6HR MAX TEMP:  98; 6HR PCP: TRACE;

O`NEILL        SUNNY     85  62  47 NE9       29.90S
ORD            PTSUNNY   78  61  55 SW9       29.89R
6HR MIN TEMP:  79; 6HR MAX TEMP:  96;

THEDFORD       MOSUNNY   91  58  32 E3        29.92F
$$

NEZ041-046>049-061>064-073>077-083>087-030100-
SOUTH CENTRAL NEBRASKA

CITY           SKY/WX    TMP DP  RH WIND       PRES   REMARKS
GRAND ISLAND   CLOUDY    84  67  56 NW14      29.88R
6HR MIN TEMP:  83; 6HR MAX TEMP:  96;

AURORA         CLOUDY    82  78  89 SW7       29.83F HX  91
HASTINGS       CLOUDY    84  71  65 S3        29.87R
6HR MIN TEMP:  83; 6HR MAX TEMP:  94;

HEBRON         CLOUDY    88  69  52 CALM      29.84R HX  92
HOLDREGE       CLOUDY    79  53  40 N23G29    29.93S
KEARNEY *      CLOUDY    82  48  30 S7        29.92F
YORK           CLOUDY    82  77  83 CALM      29.85R HX  91
$$

NEZ011>018-030>034-042>045-030100-
NORTHEAST NEBRASKA

CITY           SKY/WX    TMP DP  RH WIND       PRES   REMARKS
NORFOLK        SUNNY     88  63  43 NE10      29.84S
6HR MIN TEMP:  88; 6HR MAX TEMP:  93;

ALBION         PTSUNNY   87  67  51 NE8       29.86S
BLAIR          MOSUNNY   87  73  63 N9        29.81R HX  95
COLUMBUS *     PTSUNNY   88  72  58 CALM      29.84R HX  94
FREMONT        SUNNY     88  73  60 NW5       29.82R HX  95
TEKAMAH        SUNNY     88  75  65 NW8       29.80S HX  97
6HR MIN TEMP:  88; 6HR MAX TEMP:  92;

WAYNE          SUNNY     84  70  61 N5        29.85S
$$

NEZ050>053-065>068-078-088>093-030100-
SOUTHEAST NEBRASKA

CITY           SKY/WX    TMP DP  RH WIND       PRES   REMARKS
LINCOLN        CLOUDY    89  75  63 SW9       29.82R HX  99
6HR MIN TEMP:  89; 6HR MAX TEMP:  96;

OMAHA EPPLEY   MOSUNNY   91  76  61 N8        29.77F HX 103
6HR MIN TEMP:  90; 6HR MAX TEMP:  97;

BEATRICE       CLOUDY    89  74  62 S5        29.82F HX  98
FALLS CITY     MOSUNNY   88  75  65 SW7       29.78F HX  97
6HR MIN TEMP:  88; 6HR MAX TEMP:  91;

NEBRASKA CITY  PTSUNNY   84  72  65 SW10      29.79F
PLATTSMOUTH    MOSUNNY  N/A N/A N/A NW3       29.80R THUNDER
$$

NEZ044-045-051>053-067-030100-
OMAHA AREA

CITY           SKY/WX    TMP DP  RH WIND       PRES   REMARKS
OMAHA EPPLEY   MOSUNNY   91  76  61 N8        29.77F HX 103
6HR MIN TEMP:  90; 6HR MAX TEMP:  97;

BLAIR          MOSUNNY   87  73  63 N9        29.81R HX  95
FREMONT        SUNNY     88  73  60 NW5       29.82R HX  95
MILLARD        MOSUNNY   90  75  61 NW6       29.79R HX 100
OFFUTT AFB     PTSUNNY   90  76  64 N7        29.78R HX 101
PLATTSMOUTH    MOSUNNY  N/A N/A N/A NW3       29.80R THUNDER
WAHOO          FAIR      86  76  71 N3        29.81R HX  96
$$


USA.gov is the U.S. government's official web portal to all federal, state and local government web resources and services.